Weather observations for the past three days for
Sussex, Sussex Airport
Imperial (Metric)
Date Time (edt) Wind (mph) Vis. (mi.) Weather Sky Cond. Temperature (ºF) Relative Humidity Wind Chill (°F) Heat Index (°F) Pressure Precipitation (in)
Air Dwpt 6 hour altimeter (in) sea level (mb) 1 hr 3 hr 6 hr
Max. Min.
12 23:53 Calm 10.00 Fair CLR 55.9 53.1 90% 30.03 1016.6
12 22:53 Calm 10.00 Fair CLR 57 54 90% 30.02 1016.4
12 21:53 Calm 10.00 Fair CLR 60.1 55 84% 30.03 1016.5
12 20:53 Calm 10.00 Fair CLR 64 55 73% 30 1015.7
12 19:53 Calm 10.00 Mostly Cloudy BKN065 70 55 75.9 70 59% 29.99 1015.5
12 18:53 Vrbl 3 10.00 Fair CLR 73.9 54 50% 30 1015.5
12 17:53 E 3 10.00 Overcast OVC060 75 52 45% 78 29.99 1015.4
12 16:53 Calm 10.00 Mostly Cloudy BKN060 75 52 45% 78 30 1015.6
12 15:53 SW 5 10.00 Overcast OVC055 73 52 48% 30.01 1015.9
12 14:53 Vrbl 3 10.00 Overcast OVC055 73 52 48% 30.02 1016.3
12 13:53 Vrbl 5 10.00 Overcast OVC050 72 51.1 72 59 48% 30.03 1016.9
12 12:53 Calm 10.00 Overcast OVC050 71.1 52 51% 30.04 1017.2
12 11:53 Vrbl 6 10.00 Overcast OVC050 69.1 51.1 53% 30.06 1017.7
12 10:53 Vrbl 3 10.00 Overcast OVC050 70 51.1 51% 30.06 1017.6
12 09:53 Calm 10.00 Mostly Cloudy BKN039 BKN047 68 54 61% 30.05 1017.5
12 07:53 Calm 10.00 Mostly Cloudy BKN055 59 54 59 50 83% 30.06 1017.8
12 06:53 Calm 10.00 Fair CLR 55 52 90% 30.06 1017.6
12 05:53 Calm 10.00 Fair CLR 51.1 48.9 92% 30.05 1017.5
12 04:53 Calm 10.00 Fair CLR 51.1 48.9 92% 30.03 1016.7
12 03:53 Calm 10.00 A Few Clouds FEW060 52 50 93% 30.02 1016.6
12 02:53 Calm 10.00 Fair CLR 54 51.1 90% 30.03 1016.6
12 01:53 Calm 10.00 A Few Clouds FEW070 55 52 68 55 90% 30.02 1016.4
12 00:53 Calm 10.00 Overcast OVC065 59 53.1 81% 30.03 1016.8
11 23:53 Calm 10.00 Overcast OVC060 60.1 53.1 78% 30.03 1016.6
11 22:53 Calm 10.00 Overcast OVC060 62.1 52 70% 30.01 1015.9
11 21:53 N 3 10.00 Overcast OVC050 64 51.1 63% 30 1015.6
11 20:53 NW 3 10.00 Overcast OVC049 66 51.1 59% 29.97 1014.7
11 19:53 NW 5 10.00 Partly Cloudy SCT049 68 50 73.9 68 53% 29.96 1014.4
11 18:53 N 7 10.00 Mostly Cloudy BKN047 BKN060 70 50 49% 29.95 1014.1
11 17:53 N 6 10.00 Overcast BKN047 OVC055 70 51.1 51% 29.94 1013.7
11 16:53 NW 8 10.00 Overcast OVC047 72 52 50% 29.94 1013.7
11 15:53 Vrbl 7 10.00 Overcast BKN055 OVC070 71.1 52 51% 29.94 1013.8
11 14:53 Calm 10.00 Overcast FEW045 OVC060 72 52 50% 29.93 1013.5
11 13:53 Calm 10.00 Mostly Cloudy BKN050 71.1 51.1 73 60.1 49% 29.93 1013.6
11 12:53 Calm 10.00 Mostly Cloudy BKN047 69.1 50 51% 29.94 1013.7
11 11:53 Vrbl 6 10.00 Mostly Cloudy BKN044 69.1 51.1 53% 29.94 1013.8
11 10:53 N 9 10.00 A Few Clouds FEW041 68 50 53% 29.95 1013.9
11 09:53 NW 10 10.00 A Few Clouds FEW045 66 50 56% 29.94 1013.9
11 08:53 NE 7 10.00 A Few Clouds FEW030 64.9 51.1 61% 29.94 1013.8
11 07:53 Calm 10.00 Fair CLR 60.1 54 60.1 50 80% 29.94 1013.5
11 06:53 Calm 10.00 Mostly Cloudy BKN075 55 51.1 87% 29.92 1012.9
11 05:53 Calm 10.00 Overcast OVC070 52 51.1 97% 29.89 1012.1
11 04:53 Calm 10.00 Fair CLR 50 48 93% 29.88 1011.8
11 03:53 Calm 10.00 Mostly Cloudy BKN040 51.1 48.9 92% 29.88 1011.8
11 02:53 Calm 10.00 Mostly Cloudy SCT026 BKN041 51.1 48.9 92% 29.87 1011.3
11 01:53 Calm 10.00 Fair CLR 51.1 48.9 66.9 51.1 92% 29.86 1010.9
11 00:53 Calm 10.00 Fair CLR 52 50 93% 29.85 1010.7
10 23:53 Calm 10.00 Fair CLR 54 51.1 90% 29.83 1009.9
10 22:53 Calm 10.00 Fair CLR 55 51.1 87% 29.81 1009.2
10 21:53 Calm 10.00 A Few Clouds FEW080 57 51.1 81% 29.79 1008.7
10 20:53 Calm 10.00 Fair CLR 60.1 51.1 72% 29.76 1007.4
10 19:53 Vrbl 6 10.00 Fair CLR 66.9 48.9 73.9 66.9 53% 29.74 1007.0
10 18:53 N 6 10.00 A Few Clouds FEW055 71.1 48.9 46% 29.72 1006.3
10 17:53 N 8 10.00 A Few Clouds FEW070 FEW080 73 48.9 43% 29.71 1005.8
10 16:53 NW 7 10.00 Mostly Cloudy BKN080 73.9 50 43% 29.7 1005.6
10 15:53 NW 8 10.00 Mostly Cloudy FEW055 BKN075 72 48.9 44% 29.7 1005.4
10 14:53 Vrbl 3 10.00 Mostly Cloudy FEW055 BKN075 73.9 51.1 45% 29.68 1004.8
10 13:53 Vrbl 7 10.00 Overcast SCT055 OVC070 71.1 48 73 62.1 44% 29.68 1004.8
10 12:53 W 8 10.00 Partly Cloudy SCT060 72 50 46% 29.67 1004.4
10 11:53 N 6 10.00 Mostly Cloudy BKN055 71.1 50 47% 29.67 1004.5
10 10:53 N 8 G 25 10.00 A Few Clouds FEW043 70 48.9 47% 29.67 1004.5
10 09:53 NW 8 10.00 Mostly Cloudy BKN043 66.9 48.9 53% 29.67 1004.3
10 08:53 NW 7 10.00 A Few Clouds FEW034 64.9 50 59% 29.66 1004.3
10 07:53 Vrbl 5 10.00 A Few Clouds FEW026 62.1 50 62.1 52 65% 29.68 1004.7
10 06:53 Vrbl 3 10.00 Fair CLR 57.9 51.1 78% 29.67 1004.4
10 05:53 W 6 10.00 Fair CLR 55.9 50 81% 29.65 1003.9
10 04:53 Calm 10.00 Fair CLR 53.1 50 89% 29.64 1003.6
10 03:53 Calm 10.00 Fair CLR 55 51.1 87% 29.64 1003.4
10 02:53 Calm 10.00 Fair CLR 54 52 93% 29.64 1003.4
10 01:53 Calm 10.00 A Few Clouds FEW110 55 53.1 69.1 55 93% 29.64 1003.5
10 00:53 Calm 10.00 Overcast OVC085 57 53.1 87% 29.63 1003.2
Date Time (edt) Wind (mph) Vis. (mi.) Weather Sky Cond. Air Dwpt Max. Min. Relative Humidity Wind Chill (°F) Heat Index (°F) altimeter (in) sea level (mb) 1 hr 3 hr 6 hr
6 hour
Temperature (ºF) Pressure Precipitation (in)